Location: Trout Lake
(45.9980°N, 121.5270°W)
Time: 11:13:22
(UTC-07:00)

SL-4 R/B - Pass Details

Date: 06 December 2023
Orbit: 407 x 587 km, 51.6° (Epoch: 07 October)

Event Time Altitude Azimuth Distance (km) Brightness Sun altitude
Rises 18:21:41 0° 211° (SSW) 2,318 5.9 -20.1°
Reaches altitude 10° 18:23:56 10° 198° (SSW) 1,458 4.6 -20.5°
Enters shadow 18:25:33 21° 174° (S) 971 3.3 -20.8°
